Time,TemperatureF,DewpointF,PressureIn,WindDirection,WindDirectionDegrees,WindSpeedMPH,WindSpeedGustMPH,Humidity,HourlyPrecipIn,Conditions,Clouds,dailyrainin,SoftwareType,DateUTC
2013-03-15 00:02:00,62.6,43.2,30.05,ESE,115,9.0,14.0,49,0.00,,---,0.00,VWS V14.01,2013-03-15 05:02:00,
2013-03-15 00:08:00,62.2,43.3,30.04,ESE,115,9.0,14.0,50,0.00,,---,0.00,VWS V14.01,2013-03-15 05:08:00,
2013-03-15 00:13:00,62.0,43.2,30.04,SE,124,9.0,14.0,50,0.00,,---,0.00,VWS V14.01,2013-03-15 05:13:00,
2013-03-15 00:18:00,61.9,43.1,30.04,SE,127,10.0,14.0,50,0.00,,---,0.00,VWS V14.01,2013-03-15 05:18:00,
2013-03-15 00:23:00,61.9,43.6,30.04,SE,134,7.0,14.0,51,0.00,,---,0.00,VWS V14.01,2013-03-15 05:23:00,
2013-03-15 00:28:00,61.8,43.5,30.05,SE,134,8.0,14.0,51,0.00,,---,0.00,VWS V14.01,2013-03-15 05:28:00,
2013-03-15 00:33:00,61.7,43.4,30.04,SSE,163,7.0,12.0,51,0.00,,---,0.00,VWS V14.01,2013-03-15 05:33:00,
2013-03-15 00:38:00,61.6,43.3,30.04,SE,139,9.0,12.0,51,0.00,,---,0.00,VWS V14.01,2013-03-15 05:38:00,
2013-03-15 00:43:00,61.6,43.3,30.04,SE,139,9.0,13.0,51,0.00,,---,0.00,VWS V14.01,2013-03-15 05:43:00,
2013-03-15 00:48:00,61.6,43.3,30.04,SE,127,6.0,13.0,51,0.00,,---,0.00,VWS V14.01,2013-03-15 05:48:00,
2013-03-15 00:53:00,61.6,43.3,30.03,ESE,108,12.0,13.0,51,0.00,,---,0.00,VWS V14.01,2013-03-15 05:53:00,
2013-03-15 00:58:00,61.7,43.4,30.03,SE,127,7.0,15.0,51,0.00,,---,0.00,VWS V14.01,2013-03-15 05:58:00,
2013-03-15 01:03:00,61.8,43.5,30.03,ESE,120,10.0,12.0,51,0.00,,---,0.00,VWS V14.01,2013-03-15 06:03:00,
2013-03-15 01:08:00,61.7,43.4,30.03,SE,128,10.0,16.0,51,0.00,,---,0.00,VWS V14.01,2013-03-15 06:08:00,
2013-03-15 01:14:00,61.5,43.2,30.03,ESE,120,10.0,16.0,51,0.00,,---,0.00,VWS V14.01,2013-03-15 06:14:00,
2013-03-15 01:19:00,61.4,43.1,30.03,SE,142,9.0,16.0,51,0.00,,---,0.00,VWS V14.01,2013-03-15 06:19:00,
2013-03-15 01:24:00,61.4,43.1,30.03,SE,138,8.0,16.0,51,0.00,,---,0.00,VWS V14.01,2013-03-15 06:24:00,
2013-03-15 01:29:00,61.2,43.0,30.03,SSE,162,9.0,16.0,51,0.00,,---,0.00,VWS V14.01,2013-03-15 06:29:00,
2013-03-15 01:34:00,61.3,43.0,30.03,SE,136,8.0,17.0,51,0.00,,---,0.00,VWS V14.01,2013-03-15 06:34:00,
2013-03-15 01:39:00,61.3,43.0,30.03,SE,129,9.0,17.0,51,0.00,,---,0.00,VWS V14.01,2013-03-15 06:39:00,
2013-03-15 01:44:00,61.2,43.0,30.02,SSE,166,9.0,17.0,51,0.00,,---,0.00,VWS V14.01,2013-03-15 06:44:00,
2013-03-15 01:49:00,61.2,43.0,30.02,SE,145,11.0,17.0,51,0.00,,---,0.00,VWS V14.01,2013-03-15 06:49:00,
2013-03-15 01:54:00,61.1,42.8,30.02,SSW,193,11.0,17.0,51,0.00,,---,0.00,VWS V14.01,2013-03-15 06:54:00,
2013-03-15 01:59:00,61.2,43.0,30.01,SSE,152,13.0,17.0,51,0.00,,---,0.00,VWS V14.01,2013-03-15 06:59:00,
2013-03-15 02:05:00,61.2,43.0,30.01,SE,145,15.0,16.0,51,0.00,,---,0.00,VWS V14.01,2013-03-15 07:05:00,
2013-03-15 02:10:00,61.1,42.3,30.01,ESE,117,14.0,20.0,50,0.00,,---,0.00,VWS V14.01,2013-03-15 07:10:00,
2013-03-15 02:15:00,60.9,42.7,30.01,SE,135,10.0,20.0,51,0.00,,---,0.00,VWS V14.01,2013-03-15 07:15:00,
2013-03-15 02:20:00,60.5,42.3,30.01,SSE,160,9.0,20.0,51,0.00,,---,0.00,VWS V14.01,2013-03-15 07:20:00,
2013-03-15 02:25:00,60.0,42.3,30.01,SE,135,10.0,20.0,52,0.00,,---,0.00,VWS V14.01,2013-03-15 07:25:00,
2013-03-15 02:30:00,59.9,42.2,30.01,SE,140,12.0,21.0,52,0.00,,---,0.00,VWS V14.01,2013-03-15 07:30:00,
2013-03-15 02:35:00,59.9,42.2,30.00,SE,143,10.0,19.0,52,0.00,,---,0.00,VWS V14.01,2013-03-15 07:35:00,
2013-03-15 02:40:00,59.9,41.8,30.00,SE,138,15.0,21.0,51,0.00,,---,0.00,VWS V14.01,2013-03-15 07:40:00,
2013-03-15 02:46:00,60.1,41.4,30.00,SSE,162,17.0,22.0,50,0.00,,---,0.00,VWS V14.01,2013-03-15 07:46:00,
2013-03-15 02:51:00,60.1,41.4,30.00,SE,139,11.0,22.0,50,0.00,,---,0.00,VWS V14.01,2013-03-15 07:51:00,
2013-03-15 02:57:00,59.5,41.4,30.00,SSE,158,9.0,22.0,51,0.00,,---,0.00,VWS V14.01,2013-03-15 07:57:00,
2013-03-15 03:02:00,58.8,41.2,30.00,South,169,10.0,12.0,52,0.00,,---,0.00,VWS V14.01,2013-03-15 08:02:00,
2013-03-15 03:07:00,58.2,41.2,30.00,SE,141,8.0,13.0,53,0.00,,---,0.00,VWS V14.01,2013-03-15 08:07:00,
2013-03-15 03:12:00,57.9,40.9,30.00,South,169,8.0,13.0,53,0.00,,---,0.00,VWS V14.01,2013-03-15 08:12:00,
2013-03-15 03:17:00,57.6,41.1,30.00,South,170,6.0,13.0,54,0.00,,---,0.00,VWS V14.01,2013-03-15 08:17:00,
2013-03-15 03:22:00,57.0,41.0,30.00,SSE,155,7.0,13.0,55,0.00,,---,0.00,VWS V14.01,2013-03-15 08:22:00,
2013-03-15 03:27:00,56.4,40.9,30.00,SSE,158,7.0,13.0,56,0.00,,---,0.00,VWS V14.01,2013-03-15 08:27:00,
2013-03-15 03:33:00,55.7,40.7,30.00,SSE,156,7.0,8.0,57,0.00,,---,0.00,VWS V14.01,2013-03-15 08:33:00,
2013-03-15 03:38:00,55.2,40.7,30.00,South,184,6.0,9.0,58,0.00,,---,0.00,VWS V14.01,2013-03-15 08:38:00,
2013-03-15 03:43:00,54.9,40.4,30.00,SE,139,6.0,9.0,58,0.00,,---,0.00,VWS V14.01,2013-03-15 08:43:00,
2013-03-15 03:48:00,54.6,40.1,30.00,SSE,155,6.0,9.0,58,0.00,,---,0.00,VWS V14.01,2013-03-15 08:48:00,
2013-03-15 03:53:00,54.3,40.3,30.00,South,173,9.0,11.0,59,0.00,,---,0.00,VWS V14.01,2013-03-15 08:53:00,
2013-03-15 03:58:00,54.2,40.2,30.00,SE,135,7.0,11.0,59,0.00,,---,0.00,VWS V14.01,2013-03-15 08:58:00,
2013-03-15 04:03:00,54.3,40.3,30.00,South,172,5.0,8.0,59,0.00,,---,0.00,VWS V14.01,2013-03-15 09:03:00,
2013-03-15 04:08:00,54.3,39.8,30.00,South,181,4.0,8.0,58,0.00,,---,0.00,VWS V14.01,2013-03-15 09:08:00,
2013-03-15 04:13:00,54.1,40.1,30.00,South,177,5.0,8.0,59,0.00,,---,0.00,VWS V14.01,2013-03-15 09:13:00,
2013-03-15 04:18:00,53.6,39.6,30.00,South,177,5.0,8.0,59,0.00,,---,0.00,VWS V14.01,2013-03-15 09:18:00,
2013-03-15 04:23:00,52.8,39.7,29.99,South,187,5.0,8.0,61,0.00,,---,0.00,VWS V14.01,2013-03-15 09:23:00,
2013-03-15 04:29:00,52.1,39.5,29.99,SSE,165,4.0,8.0,62,0.00,,---,0.00,VWS V14.01,2013-03-15 09:29:00,
2013-03-15 04:34:00,51.8,39.6,29.99,South,183,4.0,5.0,63,0.00,,---,0.00,VWS V14.01,2013-03-15 09:34:00,
2013-03-15 04:39:00,51.9,39.3,29.99,SSW,204,5.0,6.0,62,0.00,,---,0.00,VWS V14.01,2013-03-15 09:39:00,
2013-03-15 04:44:00,52.0,39.4,29.99,South,191,5.0,7.0,62,0.00,,---,0.00,VWS V14.01,2013-03-15 09:44:00,
2013-03-15 04:49:00,52.0,39.4,29.99,South,191,3.0,7.0,62,0.00,,---,0.00,VWS V14.01,2013-03-15 09:49:00,
2013-03-15 04:54:00,51.8,39.2,29.99,South,183,4.0,7.0,62,0.00,,---,0.00,VWS V14.01,2013-03-15 09:54:00,
2013-03-15 04:59:00,51.8,39.2,29.98,SSW,211,6.0,7.0,62,0.00,,---,0.00,VWS V14.01,2013-03-15 09:59:00,
2013-03-15 05:04:00,52.2,39.2,29.98,South,186,6.0,8.0,61,0.00,,---,0.00,VWS V14.01,2013-03-15 10:04:00,
2013-03-15 05:09:00,52.5,39.5,29.99,South,172,6.0,8.0,61,0.00,,---,0.00,VWS V14.01,2013-03-15 10:09:00,
2013-03-15 05:14:00,52.6,39.1,29.99,South,188,6.0,8.0,60,0.00,,---,0.00,VWS V14.01,2013-03-15 10:14:00,
2013-03-15 05:20:00,52.8,39.3,29.98,South,177,7.0,9.0,60,0.00,,---,0.00,VWS V14.01,2013-03-15 10:20:00,
2013-03-15 05:25:00,53.1,39.2,29.98,SSE,153,6.0,9.0,59,0.00,,---,0.00,VWS V14.01,2013-03-15 10:25:00,
2013-03-15 05:30:00,53.3,39.3,29.98,South,169,8.0,10.0,59,0.00,,---,0.00,VWS V14.01,2013-03-15 10:30:00,
2013-03-15 05:35:00,53.5,39.1,29.98,SSE,165,7.0,9.0,58,0.00,,---,0.00,VWS V14.01,2013-03-15 10:35:00,
2013-03-15 05:40:00,53.9,39.0,29.99,SE,146,7.0,10.0,57,0.00,,---,0.00,VWS V14.01,2013-03-15 10:40:00,
2013-03-15 05:45:00,54.4,39.0,29.99,SSE,159,9.0,10.0,56,0.00,,---,0.00,VWS V14.01,2013-03-15 10:45:00,
2013-03-15 05:50:00,54.6,39.2,29.99,SE,136,6.0,10.0,56,0.00,,---,0.00,VWS V14.01,2013-03-15 10:50:00,
2013-03-15 05:55:00,54.8,39.0,29.98,SSE,160,6.0,10.0,55,0.00,,---,0.00,VWS V14.01,2013-03-15 10:55:00,
2013-03-15 06:00:00,54.9,39.0,29.99,South,172,6.0,10.0,55,0.00,,---,0.00,VWS V14.01,2013-03-15 11:00:00,
2013-03-15 06:05:00,55.3,39.4,29.99,SE,135,7.0,11.0,55,0.00,,---,0.00,VWS V14.01,2013-03-15 11:05:00,
2013-03-15 06:11:00,55.1,39.2,29.99,SE,146,9.0,13.0,55,0.00,,---,0.00,VWS V14.01,2013-03-15 11:11:00,
2013-03-15 06:16:00,55.1,39.2,29.99,SE,143,7.0,13.0,55,0.00,,---,0.00,VWS V14.01,2013-03-15 11:16:00,
2013-03-15 06:21:00,55.0,39.6,29.99,SE,132,10.0,13.0,56,0.00,,---,0.00,VWS V14.01,2013-03-15 11:21:00,
2013-03-15 06:26:00,54.5,39.1,29.99,SE,143,6.0,13.0,56,0.00,,---,0.00,VWS V14.01,2013-03-15 11:26:00,
2013-03-15 06:31:00,53.3,38.9,29.99,ESE,122,11.0,11.0,58,0.00,,---,0.00,VWS V14.01,2013-03-15 11:31:00,
2013-03-15 06:36:00,52.5,39.0,30.00,SE,133,8.0,13.0,60,0.00,,---,0.00,VWS V14.01,2013-03-15 11:36:00,
2013-03-15 06:41:00,51.8,38.8,29.99,SSE,148,9.0,13.0,61,0.00,,---,0.00,VWS V14.01,2013-03-15 11:41:00,
2013-03-15 06:46:00,52.1,39.1,30.00,SSE,148,7.0,13.0,61,0.00,,---,0.00,VWS V14.01,2013-03-15 11:46:00,
2013-03-15 06:52:00,53.1,39.2,30.00,SE,143,7.0,13.0,59,0.00,,---,0.00,VWS V14.01,2013-03-15 11:52:00,
2013-03-15 06:57:00,53.2,39.3,29.99,South,177,4.0,13.0,59,0.00,,---,0.00,VWS V14.01,2013-03-15 11:57:00,
2013-03-15 07:02:00,52.3,38.8,29.99,SSE,159,5.0,5.0,60,0.00,,---,0.00,VWS V14.01,2013-03-15 12:02:00,
2013-03-15 07:07:00,51.4,38.8,29.99,South,172,2.0,5.0,62,0.00,,---,0.00,VWS V14.01,2013-03-15 12:07:00,
2013-03-15 07:12:00,50.7,39.0,29.99,South,177,3.0,5.0,64,0.00,,---,0.00,VWS V14.01,2013-03-15 12:12:00,
2013-03-15 07:17:00,50.3,39.0,29.99,South,188,2.0,5.0,65,0.00,,---,0.00,VWS V14.01,2013-03-15 12:17:00,
2013-03-15 07:23:00,50.1,38.8,29.98,South,175,3.0,5.0,65,0.00,,---,0.00,VWS V14.01,2013-03-15 12:23:00,
2013-03-15 07:28:00,49.8,38.9,29.98,SSW,210,4.0,5.0,66,0.00,,---,0.00,VWS V14.01,2013-03-15 12:28:00,
2013-03-15 07:33:00,49.6,38.7,29.98,South,191,4.0,6.0,66,0.00,,---,0.00,VWS V14.01,2013-03-15 12:33:00,
2013-03-15 07:38:00,49.4,38.9,29.98,SSW,205,4.0,6.0,67,0.00,,---,0.00,VWS V14.01,2013-03-15 12:38:00,
2013-03-15 07:43:00,49.3,38.8,29.98,SSW,194,3.0,6.0,67,0.00,,---,0.00,VWS V14.01,2013-03-15 12:43:00,
2013-03-15 07:48:00,48.9,38.8,29.98,SW,217,3.0,6.0,68,0.00,,---,0.00,VWS V14.01,2013-03-15 12:48:00,
2013-03-15 07:53:00,48.0,38.7,29.98,SSW,206,4.0,6.0,70,0.00,,---,0.00,VWS V14.01,2013-03-15 12:53:00,
2013-03-15 07:58:00,47.6,38.7,29.98,SW,215,5.0,6.0,71,0.00,,---,0.00,VWS V14.01,2013-03-15 12:58:00,
2013-03-15 08:03:00,47.5,38.9,29.98,South,181,4.0,6.0,72,0.00,,---,0.00,VWS V14.01,2013-03-15 13:03:00,
2013-03-15 08:09:00,47.7,39.1,29.97,South,180,3.0,6.0,72,0.00,,---,0.00,VWS V14.01,2013-03-15 13:09:00,
2013-03-15 08:14:00,48.2,39.2,29.97,South,188,3.0,6.0,71,0.00,,---,0.00,VWS V14.01,2013-03-15 13:14:00,
2013-03-15 08:19:00,48.2,39.2,29.97,SSW,201,3.0,6.0,71,0.00,,---,0.00,VWS V14.01,2013-03-15 13:19:00,
2013-03-15 08:24:00,48.4,39.4,29.97,SSW,205,4.0,6.0,71,0.00,,---,0.00,VWS V14.01,2013-03-15 13:24:00,
2013-03-15 08:29:00,48.4,39.4,29.97,South,186,3.0,6.0,71,0.00,,---,0.00,VWS V14.01,2013-03-15 13:29:00,
2013-03-15 08:34:00,48.8,39.8,29.97,SSE,150,3.0,4.0,71,0.00,,---,0.00,VWS V14.01,2013-03-15 13:34:00,
2013-03-15 08:39:00,49.6,40.2,29.97,South,172,3.0,4.0,70,0.00,,---,0.00,VWS V14.01,2013-03-15 13:39:00,
2013-03-15 08:44:00,50.7,40.5,29.97,SSE,153,4.0,4.0,68,0.00,,---,0.00,VWS V14.01,2013-03-15 13:44:00,
2013-03-15 08:49:00,51.9,40.9,29.97,SE,138,5.0,6.0,66,0.00,,---,0.00,VWS V14.01,2013-03-15 13:49:00,
2013-03-15 08:55:00,53.0,41.2,29.97,SSE,153,7.0,8.0,64,0.00,,---,0.00,VWS V14.01,2013-03-15 13:55:00,
2013-03-15 09:00:00,54.4,42.1,29.97,SSE,165,6.0,8.0,63,0.00,,---,0.00,VWS V14.01,2013-03-15 14:00:00,
2013-03-15 09:05:00,56.1,42.4,29.97,SSE,160,6.0,8.0,60,0.00,,---,0.00,VWS V14.01,2013-03-15 14:05:00,
2013-03-15 09:10:00,57.6,43.0,29.98,SE,129,7.0,9.0,58,0.00,,---,0.00,VWS V14.01,2013-03-15 14:10:00,
2013-03-15 09:15:00,58.8,43.6,29.97,SE,129,9.0,12.0,57,0.00,,---,0.00,VWS V14.01,2013-03-15 14:15:00,
2013-03-15 09:20:00,60.1,43.4,29.98,SSE,153,3.0,12.0,54,0.00,,---,0.00,VWS V14.01,2013-03-15 14:20:00,
2013-03-15 09:25:00,61.2,43.5,29.97,SSE,163,9.0,12.0,52,0.00,,---,0.00,VWS V14.01,2013-03-15 14:25:00,
2013-03-15 09:30:00,62.0,44.2,29.98,SSE,163,6.0,12.0,52,0.00,,---,0.00,VWS V14.01,2013-03-15 14:30:00,
2013-03-15 09:36:00,62.5,44.7,29.98,SSE,155,5.0,10.0,52,0.00,,---,0.00,VWS V14.01,2013-03-15 14:36:00,
2013-03-15 09:41:00,63.2,44.8,29.97,South,186,5.0,10.0,51,0.00,,---,0.00,VWS V14.01,2013-03-15 14:41:00,
2013-03-15 09:46:00,64.0,43.9,29.97,SSW,198,9.0,10.0,48,0.00,,---,0.00,VWS V14.01,2013-03-15 14:46:00,
2013-03-15 09:51:00,64.5,43.8,29.97,SSE,155,6.0,14.0,47,0.00,,---,0.00,VWS V14.01,2013-03-15 14:51:00,
2013-03-15 09:56:00,65.0,43.2,29.97,South,181,10.0,14.0,45,0.00,,---,0.00,VWS V14.01,2013-03-15 14:56:00,
2013-03-15 10:02:00,65.6,43.7,29.97,South,179,7.0,14.0,45,0.00,,---,0.00,VWS V14.01,2013-03-15 15:02:00,
2013-03-15 10:07:00,65.8,43.3,29.97,SSW,195,7.0,14.0,44,0.00,,---,0.00,VWS V14.01,2013-03-15 15:07:00,
2013-03-15 10:12:00,66.2,43.7,29.97,South,183,11.0,14.0,44,0.00,,---,0.00,VWS V14.01,2013-03-15 15:12:00,
2013-03-15 10:17:00,66.8,44.2,29.97,SW,219,10.0,14.0,44,0.00,,---,0.00,VWS V14.01,2013-03-15 15:17:00,
2013-03-15 10:22:00,67.4,42.9,29.97,WSW,242,7.0,14.0,41,0.00,,---,0.00,VWS V14.01,2013-03-15 15:22:00,
2013-03-15 10:27:00,67.5,43.6,29.97,SSW,208,8.0,14.0,42,0.00,,---,0.00,VWS V14.01,2013-03-15 15:27:00,
2013-03-15 10:32:00,67.5,43.0,29.97,SSW,201,3.0,13.0,41,0.00,,---,0.00,VWS V14.01,2013-03-15 15:32:00,
2013-03-15 10:37:00,68.0,44.1,29.97,SSW,204,4.0,15.0,42,0.00,,---,0.00,VWS V14.01,2013-03-15 15:37:00,
2013-03-15 10:43:00,68.0,43.5,29.97,South,190,7.0,15.0,41,0.00,,---,0.00,VWS V14.01,2013-03-15 15:43:00,
2013-03-15 10:48:00,68.0,44.1,29.96,SSW,205,9.0,15.0,42,0.00,,---,0.00,VWS V14.01,2013-03-15 15:48:00,
2013-03-15 10:53:00,68.2,44.3,29.96,South,191,11.0,15.0,42,0.00,,---,0.00,VWS V14.01,2013-03-15 15:53:00,
2013-03-15 10:58:00,68.6,44.0,29.96,SW,215,10.0,15.0,41,0.00,,---,0.00,VWS V14.01,2013-03-15 15:58:00,
2013-03-15 11:03:00,68.7,44.1,29.96,West,259,7.0,11.0,41,0.00,,---,0.00,VWS V14.01,2013-03-15 16:03:00,
2013-03-15 11:08:00,69.2,44.5,29.96,SW,233,7.0,13.0,41,0.00,,---,0.00,VWS V14.01,2013-03-15 16:08:00,
2013-03-15 11:13:00,69.5,44.8,29.96,SW,214,5.0,13.0,41,0.00,,---,0.00,VWS V14.01,2013-03-15 16:13:00,
2013-03-15 11:18:00,70.4,45.0,29.95,WNW,287,3.0,13.0,40,0.00,,---,0.00,VWS V14.01,2013-03-15 16:18:00,
2013-03-15 11:23:00,70.6,45.8,29.95,WSW,242,12.0,13.0,41,0.00,,---,0.00,VWS V14.01,2013-03-15 16:23:00,
2013-03-15 11:28:00,71.1,44.2,29.95,SSW,212,6.0,13.0,38,0.00,,---,0.00,VWS V14.01,2013-03-15 16:28:00,
2013-03-15 11:33:00,71.6,44.0,29.95,SW,214,10.0,16.0,37,0.00,,---,0.00,VWS V14.01,2013-03-15 16:33:00,
2013-03-15 11:39:00,72.2,43.8,29.95,SW,233,8.0,16.0,36,0.00,,---,0.00,VWS V14.01,2013-03-15 16:39:00,
2013-03-15 11:44:00,72.4,44.0,29.95,SSW,201,9.0,16.0,36,0.00,,---,0.00,VWS V14.01,2013-03-15 16:44:00,
2013-03-15 11:49:00,72.8,43.6,29.94,WSW,238,13.0,16.0,35,0.00,,---,0.00,VWS V14.01,2013-03-15 16:49:00,
2013-03-15 11:54:00,73.0,44.5,29.94,SSW,211,11.0,16.0,36,0.00,,---,0.00,VWS V14.01,2013-03-15 16:54:00,
2013-03-15 11:59:00,73.4,43.3,29.94,SSW,201,10.0,19.0,34,0.00,,---,0.00,VWS V14.01,2013-03-15 16:59:00,
2013-03-15 12:04:00,74.1,44.7,29.94,SW,221,6.0,11.0,35,0.00,,---,0.00,VWS V14.01,2013-03-15 17:04:00,
2013-03-15 12:09:00,74.4,43.5,29.94,SSW,198,7.0,14.0,33,0.00,,---,0.00,VWS V14.01,2013-03-15 17:09:00,
2013-03-15 12:14:00,74.7,42.9,29.93,SW,231,8.0,16.0,32,0.00,,---,0.00,VWS V14.01,2013-03-15 17:14:00,
2013-03-15 12:19:00,75.3,44.2,29.93,SSW,205,9.0,16.0,33,0.00,,---,0.00,VWS V14.01,2013-03-15 17:19:00,
2013-03-15 12:25:00,75.8,44.7,29.93,SSE,166,9.0,16.0,33,0.00,,---,0.00,VWS V14.01,2013-03-15 17:25:00,
2013-03-15 12:30:00,76.1,44.1,29.93,SSE,153,8.0,16.0,32,0.00,,---,0.00,VWS V14.01,2013-03-15 17:30:00,
2013-03-15 12:35:00,76.6,44.6,29.92,SSE,160,9.0,14.0,32,0.00,,---,0.00,VWS V14.01,2013-03-15 17:35:00,
2013-03-15 12:40:00,76.9,44.0,29.92,South,180,9.0,15.0,31,0.00,,---,0.00,VWS V14.01,2013-03-15 17:40:00,
2013-03-15 12:45:00,77.1,44.2,29.92,West,267,6.0,15.0,31,0.00,,---,0.00,VWS V14.01,2013-03-15 17:45:00,
2013-03-15 12:50:00,77.5,43.7,29.92,South,173,7.0,16.0,30,0.00,,---,0.00,VWS V14.01,2013-03-15 17:50:00,
2013-03-15 12:55:00,77.9,44.0,29.92,SW,214,7.0,16.0,30,0.00,,---,0.00,VWS V14.01,2013-03-15 17:55:00,
2013-03-15 13:00:00,78.7,44.7,29.91,South,187,8.0,16.0,30,0.00,,---,0.00,VWS V14.01,2013-03-15 18:00:00,
2013-03-15 13:06:00,79.5,44.5,29.91,SSE,153,8.0,14.0,29,0.00,,---,0.00,VWS V14.01,2013-03-15 18:06:00,
2013-03-15 13:11:00,80.0,44.0,29.90,SSE,162,13.0,14.0,28,0.00,,---,0.00,VWS V14.01,2013-03-15 18:11:00,
2013-03-15 13:16:00,80.2,44.2,29.90,SSW,203,13.0,14.0,28,0.00,,---,0.00,VWS V14.01,2013-03-15 18:16:00,
2013-03-15 13:21:00,80.4,44.3,29.90,SE,139,9.0,14.0,28,0.00,,---,0.00,VWS V14.01,2013-03-15 18:21:00,
2013-03-15 13:26:00,80.7,44.6,29.90,South,172,6.0,18.0,28,0.00,,---,0.00,VWS V14.01,2013-03-15 18:26:00,
2013-03-15 13:31:00,81.0,43.9,29.90,SSW,195,11.0,11.0,27,0.00,,---,0.00,VWS V14.01,2013-03-15 18:31:00,
2013-03-15 13:36:00,81.4,44.2,29.89,SW,218,11.0,17.0,27,0.00,,---,0.00,VWS V14.01,2013-03-15 18:36:00,
2013-03-15 13:41:00,81.2,44.1,29.89,SE,136,6.0,18.0,27,0.00,,---,0.00,VWS V14.01,2013-03-15 18:41:00,
2013-03-15 13:46:00,81.6,44.4,29.88,SSE,167,8.0,18.0,27,0.00,,---,0.00,VWS V14.01,2013-03-15 18:46:00,
2013-03-15 13:52:00,81.8,43.6,29.88,South,183,10.0,18.0,26,0.00,,---,0.00,VWS V14.01,2013-03-15 18:52:00,
2013-03-15 13:57:00,81.6,43.4,29.87,SSE,167,17.0,22.0,26,0.00,,---,0.00,VWS V14.01,2013-03-15 18:57:00,
2013-03-15 14:02:00,82.0,42.8,29.87,SE,143,13.0,15.0,25,0.00,,---,0.00,VWS V14.01,2013-03-15 19:02:00,
2013-03-15 14:07:00,82.2,43.9,29.87,SSW,205,8.0,18.0,26,0.00,,---,0.00,VWS V14.01,2013-03-15 19:07:00,
2013-03-15 14:12:00,82.6,43.2,29.86,SSE,158,9.0,19.0,25,0.00,,---,0.00,VWS V14.01,2013-03-15 19:12:00,
2013-03-15 14:17:00,82.8,43.4,29.86,SW,214,15.0,19.0,25,0.00,,---,0.00,VWS V14.01,2013-03-15 19:17:00,
2013-03-15 14:22:00,83.0,41.4,29.86,South,181,11.0,19.0,23,0.00,,---,0.00,VWS V14.01,2013-03-15 19:22:00,
2013-03-15 14:28:00,83.3,43.8,29.85,SSE,162,12.0,19.0,25,0.00,,---,0.00,VWS V14.01,2013-03-15 19:28:00,
2013-03-15 14:33:00,83.3,43.8,29.85,South,170,11.0,14.0,25,0.00,,---,0.00,VWS V14.01,2013-03-15 19:33:00,
2013-03-15 14:38:00,83.2,42.7,29.85,SSE,155,13.0,17.0,24,0.00,,---,0.00,VWS V14.01,2013-03-15 19:38:00,
2013-03-15 14:43:00,82.8,44.5,29.84,South,181,11.0,21.0,26,0.00,,---,0.00,VWS V14.01,2013-03-15 19:43:00,
2013-03-15 14:48:00,82.7,43.3,29.84,SSE,159,15.0,21.0,25,0.00,,---,0.00,VWS V14.01,2013-03-15 19:48:00,
2013-03-15 14:53:00,82.9,43.5,29.83,SSE,147,14.0,21.0,25,0.00,,---,0.00,VWS V14.01,2013-03-15 19:53:00,
2013-03-15 14:58:00,83.0,43.6,29.83,South,183,13.0,21.0,25,0.00,,---,0.00,VWS V14.01,2013-03-15 19:58:00,
2013-03-15 15:03:00,83.2,43.8,29.82,SE,136,15.0,18.0,25,0.00,,---,0.00,VWS V14.01,2013-03-15 20:03:00,
2013-03-15 15:08:00,83.4,42.9,29.82,SSE,158,11.0,19.0,24,0.00,,---,0.00,VWS V14.01,2013-03-15 20:08:00,
2013-03-15 15:14:00,83.4,42.9,29.82,SSE,155,13.0,20.0,24,0.00,,---,0.00,VWS V14.01,2013-03-15 20:14:00,
2013-03-15 15:19:00,83.4,42.9,29.82,SSW,205,11.0,20.0,24,0.00,,---,0.00,VWS V14.01,2013-03-15 20:19:00,
2013-03-15 15:24:00,84.2,43.5,29.81,SSE,159,13.0,20.0,24,0.00,,---,0.00,VWS V14.01,2013-03-15 20:24:00,
2013-03-15 15:29:00,83.9,42.2,29.81,South,190,13.0,20.0,23,0.00,,---,0.00,VWS V14.01,2013-03-15 20:29:00,
2013-03-15 15:34:00,84.3,43.6,29.80,SE,127,11.0,16.0,24,0.00,,---,0.00,VWS V14.01,2013-03-15 20:34:00,
2013-03-15 15:39:00,84.7,42.8,29.80,SSE,147,15.0,19.0,23,0.00,,---,0.00,VWS V14.01,2013-03-15 20:39:00,
2013-03-15 15:44:00,84.6,41.6,29.80,SSE,162,12.0,20.0,22,0.00,,---,0.00,VWS V14.01,2013-03-15 20:44:00,
2013-03-15 15:49:00,84.9,41.9,29.79,South,173,10.0,20.0,22,0.00,,---,0.00,VWS V14.01,2013-03-15 20:49:00,
2013-03-15 15:54:00,85.0,40.7,29.79,South,187,9.0,20.0,21,0.00,,---,0.00,VWS V14.01,2013-03-15 20:54:00,
2013-03-15 15:59:00,85.2,40.9,29.78,SSW,205,11.0,24.0,21,0.00,,---,0.00,VWS V14.01,2013-03-15 20:59:00,
2013-03-15 16:04:00,85.4,41.1,29.78,SSE,167,11.0,15.0,21,0.00,,---,0.00,VWS V14.01,2013-03-15 21:04:00,
2013-03-15 16:09:00,85.7,41.3,29.78,SSE,167,12.0,15.0,21,0.00,,---,0.00,VWS V14.01,2013-03-15 21:09:00,
2013-03-15 16:14:00,85.4,41.1,29.78,SE,142,13.0,17.0,21,0.00,,---,0.00,VWS V14.01,2013-03-15 21:14:00,
2013-03-15 16:20:00,85.6,40.0,29.77,SE,129,9.0,17.0,20,0.00,,---,0.00,VWS V14.01,2013-03-15 21:20:00,
2013-03-15 16:25:00,85.7,41.3,29.77,SE,137,11.0,17.0,21,0.00,,---,0.00,VWS V14.01,2013-03-15 21:25:00,
2013-03-15 16:30:00,85.9,40.2,29.77,SSW,199,6.0,17.0,20,0.00,,---,0.00,VWS V14.01,2013-03-15 21:30:00,
2013-03-15 16:35:00,86.3,39.2,29.77,SE,137,10.0,20.0,19,0.00,,---,0.00,VWS V14.01,2013-03-15 21:35:00,
2013-03-15 16:40:00,86.6,40.8,29.77,SE,145,10.0,20.0,20,0.00,,---,0.00,VWS V14.01,2013-03-15 21:40:00,
2013-03-15 16:46:00,86.8,39.6,29.76,SSE,158,7.0,20.0,19,0.00,,---,0.00,VWS V14.01,2013-03-15 21:46:00,
2013-03-15 16:51:00,86.8,39.6,29.76,South,170,10.0,20.0,19,0.00,,---,0.00,VWS V14.01,2013-03-15 21:51:00,
2013-03-15 16:56:00,86.8,39.6,29.76,SSE,165,11.0,20.0,19,0.00,,---,0.00,VWS V14.01,2013-03-15 21:56:00,
2013-03-15 17:01:00,86.8,41.0,29.75,SSE,159,12.0,17.0,20,0.00,,---,0.00,VWS V14.01,2013-03-15 22:01:00,
2013-03-15 17:06:00,86.7,39.6,29.75,South,183,7.0,17.0,19,0.00,,---,0.00,VWS V14.01,2013-03-15 22:06:00,
2013-03-15 17:11:00,87.4,38.7,29.74,South,184,9.0,18.0,18,0.00,,---,0.00,VWS V14.01,2013-03-15 22:11:00,
2013-03-15 17:16:00,87.5,38.8,29.74,ESE,121,14.0,20.0,18,0.00,,---,0.00,VWS V14.01,2013-03-15 22:16:00,
2013-03-15 17:21:00,87.3,41.4,29.74,South,190,13.0,20.0,20,0.00,,---,0.00,VWS V14.01,2013-03-15 22:21:00,
2013-03-15 17:27:00,87.3,37.2,29.73,South,172,12.0,20.0,17,0.00,,---,0.00,VWS V14.01,2013-03-15 22:27:00,
2013-03-15 17:32:00,87.2,38.6,29.73,South,181,8.0,11.0,18,0.00,,---,0.00,VWS V14.01,2013-03-15 22:32:00,
2013-03-15 17:37:00,86.8,41.0,29.73,SSE,150,9.0,15.0,20,0.00,,---,0.00,VWS V14.01,2013-03-15 22:37:00,
2013-03-15 17:42:00,86.3,40.5,29.73,SSE,149,7.0,15.0,20,0.00,,---,0.00,VWS V14.01,2013-03-15 22:42:00,
2013-03-15 17:47:00,85.8,40.1,29.73,SSE,160,9.0,15.0,20,0.00,,---,0.00,VWS V14.01,2013-03-15 22:47:00,
2013-03-15 17:52:00,85.6,41.2,29.73,SSE,158,8.0,15.0,21,0.00,,---,0.00,VWS V14.01,2013-03-15 22:52:00,
2013-03-15 17:57:00,85.7,40.1,29.73,South,181,6.0,15.0,20,0.00,,---,0.00,VWS V14.01,2013-03-15 22:57:00,
2013-03-15 18:02:00,85.9,40.2,29.73,SSE,153,8.0,11.0,20,0.00,,---,0.00,VWS V14.01,2013-03-15 23:02:00,
2013-03-15 18:07:00,86.1,39.1,29.72,South,181,8.0,12.0,19,0.00,,---,0.00,VWS V14.01,2013-03-15 23:07:00,
2013-03-15 18:13:00,85.8,40.1,29.72,SE,132,10.0,13.0,20,0.00,,---,0.00,VWS V14.01,2013-03-15 23:13:00,
2013-03-15 18:18:00,85.6,38.7,29.72,SE,143,7.0,13.0,19,0.00,,---,0.00,VWS V14.01,2013-03-15 23:18:00,
2013-03-15 18:23:00,85.0,40.7,29.72,South,170,6.0,13.0,21,0.00,,---,0.00,VWS V14.01,2013-03-15 23:23:00,
2013-03-15 18:28:00,84.2,42.4,29.71,SSE,149,8.0,13.0,23,0.00,,---,0.00,VWS V14.01,2013-03-15 23:28:00,
2013-03-15 18:33:00,83.5,43.0,29.71,SSE,149,7.0,10.0,24,0.00,,---,0.00,VWS V14.01,2013-03-15 23:33:00,
2013-03-15 18:38:00,82.9,42.4,29.71,SE,124,10.0,11.0,24,0.00,,---,0.00,VWS V14.01,2013-03-15 23:38:00,
2013-03-15 18:43:00,82.5,42.1,29.71,SSE,167,9.0,11.0,24,0.00,,---,0.00,VWS V14.01,2013-03-15 23:43:00,
2013-03-15 18:48:00,82.4,42.0,29.70,SE,129,6.0,12.0,24,0.00,,---,0.00,VWS V14.01,2013-03-15 23:48:00,
2013-03-15 18:53:00,82.2,41.8,29.70,SE,146,7.0,12.0,24,0.00,,---,0.00,VWS V14.01,2013-03-15 23:53:00,
2013-03-15 18:58:00,82.3,41.9,29.70,SSE,160,8.0,12.0,24,0.00,,---,0.00,VWS V14.01,2013-03-15 23:58:00,
2013-03-15 19:03:00,82.2,41.8,29.70,SSE,165,8.0,11.0,24,0.00,,---,0.00,VWS V14.01,2013-03-16 00:03:00,
2013-03-15 19:08:00,81.7,41.4,29.70,SSE,152,9.0,13.0,24,0.00,,---,0.00,VWS V14.01,2013-03-16 00:08:00,
2013-03-15 19:13:00,81.4,41.2,29.70,SE,129,8.0,13.0,24,0.00,,---,0.00,VWS V14.01,2013-03-16 00:13:00,
2013-03-15 19:18:00,80.8,41.7,29.70,SSE,156,7.0,13.0,25,0.00,,---,0.00,VWS V14.01,2013-03-16 00:18:00,
2013-03-15 19:23:00,80.2,42.2,29.70,SE,134,8.0,13.0,26,0.00,,---,0.00,VWS V14.01,2013-03-16 00:23:00,
2013-03-15 19:29:00,79.7,40.8,29.70,ESE,114,8.0,13.0,25,0.00,,---,0.00,VWS V14.01,2013-03-16 00:29:00,
2013-03-15 19:34:00,79.4,40.5,29.70,SE,139,6.0,11.0,25,0.00,,---,0.00,VWS V14.01,2013-03-16 00:34:00,
2013-03-15 19:39:00,79.1,40.3,29.69,SE,141,7.0,11.0,25,0.00,,---,0.00,VWS V14.01,2013-03-16 00:39:00,
2013-03-15 19:44:00,78.4,40.7,29.69,SE,127,6.0,11.0,26,0.00,,---,0.00,VWS V14.01,2013-03-16 00:44:00,
2013-03-15 19:49:00,77.8,41.2,29.69,SE,130,7.0,11.0,27,0.00,,---,0.00,VWS V14.01,2013-03-16 00:49:00,
2013-03-15 19:54:00,76.8,41.3,29.69,SE,131,6.0,11.0,28,0.00,,---,0.00,VWS V14.01,2013-03-16 00:54:00,
2013-03-15 19:59:00,76.1,40.7,29.69,SE,127,5.0,11.0,28,0.00,,---,0.00,VWS V14.01,2013-03-16 00:59:00,
2013-03-15 20:04:00,75.8,41.3,29.69,SSE,150,6.0,10.0,29,0.00,,---,0.00,VWS V14.01,2013-03-16 01:04:00,
2013-03-15 20:09:00,75.6,41.1,29.69,SE,127,6.0,10.0,29,0.00,,---,0.00,VWS V14.01,2013-03-16 01:09:00,
2013-03-15 20:14:00,75.6,40.2,29.69,SE,125,8.0,10.0,28,0.00,,---,0.00,VWS V14.01,2013-03-16 01:14:00,
2013-03-15 20:20:00,75.6,40.2,29.69,ESE,120,8.0,11.0,28,0.00,,---,0.00,VWS V14.01,2013-03-16 01:20:00,
2013-03-15 20:25:00,75.7,40.3,29.69,SE,124,8.0,11.0,28,0.00,,---,0.00,VWS V14.01,2013-03-16 01:25:00,
2013-03-15 20:30:00,75.2,39.9,29.69,SE,128,9.0,12.0,28,0.00,,---,0.00,VWS V14.01,2013-03-16 01:30:00,
2013-03-15 20:35:00,75.1,39.8,29.69,SE,134,10.0,13.0,28,0.00,,---,0.00,VWS V14.01,2013-03-16 01:35:00,
2013-03-15 20:40:00,75.5,39.2,29.69,SE,134,8.0,15.0,27,0.00,,---,0.00,VWS V14.01,2013-03-16 01:40:00,
2013-03-15 20:45:00,75.9,39.6,29.69,ESE,117,12.0,16.0,27,0.00,,---,0.00,VWS V14.01,2013-03-16 01:45:00,
2013-03-15 20:50:00,75.7,40.3,29.69,SE,135,13.0,17.0,28,0.00,,---,0.00,VWS V14.01,2013-03-16 01:50:00,
2013-03-15 20:55:00,75.1,40.7,29.69,ESE,118,11.0,17.0,29,0.00,,---,0.00,VWS V14.01,2013-03-16 01:55:00,
2013-03-15 21:00:00,74.6,40.3,29.69,SE,131,10.0,17.0,29,0.00,,---,0.00,VWS V14.01,2013-03-16 02:00:00,
2013-03-15 21:05:00,74.1,40.7,29.69,ESE,122,11.0,14.0,30,0.00,,---,0.00,VWS V14.01,2013-03-16 02:05:00,
2013-03-15 21:11:00,73.7,41.2,29.69,SE,140,12.0,15.0,31,0.00,,---,0.00,VWS V14.01,2013-03-16 02:11:00,
2013-03-15 21:16:00,73.6,41.1,29.69,SE,131,14.0,17.0,31,0.00,,---,0.00,VWS V14.01,2013-03-16 02:16:00,
2013-03-15 21:21:00,73.9,41.4,29.69,SSE,166,11.0,17.0,31,0.00,,---,0.00,VWS V14.01,2013-03-16 02:21:00,
2013-03-15 21:26:00,74.0,41.5,29.69,ESE,118,11.0,17.0,31,0.00,,---,0.00,VWS V14.01,2013-03-16 02:26:00,
2013-03-15 21:32:00,74.0,41.5,29.69,SSE,149,13.0,15.0,31,0.00,,---,0.00,VWS V14.01,2013-03-16 02:32:00,
2013-03-15 21:37:00,73.8,41.3,29.69,SE,128,11.0,18.0,31,0.00,,---,0.00,VWS V14.01,2013-03-16 02:37:00,
2013-03-15 21:42:00,73.4,41.0,29.69,SE,128,11.0,18.0,31,0.00,,---,0.00,VWS V14.01,2013-03-16 02:42:00,
2013-03-15 21:47:00,73.1,41.5,29.69,SE,128,16.0,19.0,32,0.00,,---,0.00,VWS V14.01,2013-03-16 02:47:00,
2013-03-15 21:52:00,73.1,41.5,29.69,SE,124,10.0,19.0,32,0.00,,---,0.00,VWS V14.01,2013-03-16 02:52:00,
2013-03-15 21:57:00,72.9,41.3,29.69,SE,125,11.0,19.0,32,0.00,,---,0.00,VWS V14.01,2013-03-16 02:57:00,
2013-03-15 22:02:00,72.6,41.1,29.69,ESE,114,10.0,15.0,32,0.00,,---,0.00,VWS V14.01,2013-03-16 03:02:00,
2013-03-15 22:08:00,72.4,40.9,29.69,SE,145,11.0,18.0,32,0.00,,---,0.00,VWS V14.01,2013-03-16 03:08:00,
2013-03-15 22:13:00,72.4,41.7,29.68,ESE,111,9.0,18.0,33,0.00,,---,0.00,VWS V14.01,2013-03-16 03:13:00,
2013-03-15 22:18:00,72.3,41.6,29.68,SE,141,13.0,18.0,33,0.00,,---,0.00,VWS V14.01,2013-03-16 03:18:00,
2013-03-15 22:23:00,72.1,41.4,29.68,ESE,113,10.0,20.0,33,0.00,,---,0.00,VWS V14.01,2013-03-16 03:23:00,
2013-03-15 22:28:00,71.9,41.3,29.68,ESE,120,11.0,23.0,33,0.00,,---,0.00,VWS V14.01,2013-03-16 03:28:00,
2013-03-15 22:33:00,71.4,41.6,29.68,SE,132,12.0,15.0,34,0.00,,---,0.00,VWS V14.01,2013-03-16 03:33:00,
2013-03-15 22:39:00,71.0,41.2,29.68,ESE,120,9.0,16.0,34,0.00,,---,0.00,VWS V14.01,2013-03-16 03:39:00,
2013-03-15 22:44:00,70.5,41.6,29.68,ESE,108,12.0,16.0,35,0.00,,---,0.00,VWS V14.01,2013-03-16 03:44:00,
2013-03-15 22:49:00,70.2,41.3,29.68,SE,143,9.0,16.0,35,0.00,,---,0.00,VWS V14.01,2013-03-16 03:49:00,
2013-03-15 22:54:00,69.9,41.0,29.68,ESE,110,14.0,17.0,35,0.00,,---,0.00,VWS V14.01,2013-03-16 03:54:00,
2013-03-15 22:59:00,70.1,41.2,29.68,SE,127,11.0,17.0,35,0.00,,---,0.00,VWS V14.01,2013-03-16 03:59:00,
2013-03-15 23:00:00,70.1,41.2,29.68,SE,143,8.0,17.0,35,0.00,,---,0.00,VWS V14.01,2013-03-16 04:00:00,
2013-03-15 23:02:00,70.1,41.2,29.68,SE,131,12.0,16.0,35,0.00,,---,0.00,VWS V14.01,2013-03-16 04:02:00,
2013-03-15 23:07:00,69.7,40.8,29.68,SSE,156,9.0,16.0,35,0.00,,---,0.00,VWS V14.01,2013-03-16 04:07:00,
2013-03-15 23:12:00,69.4,41.3,29.68,ESE,103,12.0,16.0,36,0.00,,---,0.00,VWS V14.01,2013-03-16 04:12:00,
2013-03-15 23:17:00,69.0,41.7,29.68,ESE,104,15.0,16.0,37,0.00,,---,0.00,VWS V14.01,2013-03-16 04:17:00,
2013-03-15 23:22:00,68.8,41.5,29.68,ESE,120,13.0,17.0,37,0.00,,---,0.00,VWS V14.01,2013-03-16 04:22:00,
2013-03-15 23:27:00,68.4,41.1,29.68,SE,127,10.0,17.0,37,0.00,,---,0.00,VWS V14.01,2013-03-16 04:27:00,
2013-03-15 23:32:00,68.1,41.6,29.68,SSE,157,9.0,11.0,38,0.00,,---,0.00,VWS V14.01,2013-03-16 04:32:00,
2013-03-15 23:37:00,67.9,41.4,29.68,SE,132,11.0,16.0,38,0.00,,---,0.00,VWS V14.01,2013-03-16 04:37:00,
2013-03-15 23:42:00,67.7,41.2,29.68,South,169,8.0,16.0,38,0.00,,---,0.00,VWS V14.01,2013-03-16 04:42:00,
2013-03-15 23:47:00,67.5,41.7,29.68,SSE,152,12.0,16.0,39,0.00,,---,0.00,VWS V14.01,2013-03-16 04:47:00,
2013-03-15 23:52:00,67.3,41.5,29.68,SSE,155,11.0,16.0,39,0.00,,---,0.00,VWS V14.01,2013-03-16 04:52:00,
2013-03-15 23:57:00,67.0,41.2,29.68,SE,135,10.0,16.0,39,0.00,,---,0.00,VWS V14.01,2013-03-16 04:57:00,